AK4FD Weather Reports


time (UTC)temp
F
wind
direction
speed
knots
gust
knots
rain 1hr
in
rain 24hr
in
rain mn
in
humidity
%
barometer
mb
20260505001725 69 86 0.0 1.7 0.00 0.00 0.00 41 1014.6
20260505001223 70 122 1.7 1.7 0.00 0.00 0.00 38 1014.6
20260505000720 70 89 0.0 1.7 0.00 0.00 0.00 38 1014.4
20260505000219 70 60 0.0 1.7 0.00 0.00 0.00 38 1014.6
20260504235714 71 67 0.0 0.9 0.00 0.00 0.00 40 1014.3
20260504235210 71 117 0.0 0.9 0.00 0.00 0.00 35 1014.4
20260504234708 72 81 1.7 1.7 0.00 0.00 0.00 36 1014.4
20260504234205 72 143 0.0 1.7 0.00 0.00 0.00 34 1014.6
20260504233700 73 120 0.9 1.7 0.00 0.00 0.00 33 1014.4
20260504233156 73 121 0.9 2.6 0.00 0.00 0.00 33 1014.4
20260504232654 73 99 1.7 3.5 0.00 0.00 0.00 32 1014.4
20260504232151 73 99 0.9 1.7 0.00 0.00 0.00 33 1014.3
20260504231648 73 111 0.0 1.7 0.00 0.00 0.00 33 1014.3
20260504231144 74 101 0.0 1.7 0.00 0.00 0.00 33 1014.1
20260504230640 74 64 0.9 1.7 0.00 0.00 0.00 33 1014.1
20260504230139 74 229 0.9 2.6 0.00 0.00 0.00 31 1014.1
20260504225637 74 235 1.7 1.7 0.00 0.00 0.00 31 1014.0
20260504225133 75 103 0.9 0.9 0.00 0.00 0.00 32 1013.9
20260504224630 75 156 0.9 2.6 0.00 0.00 0.00 30 1014.0
20260504224127 75 101 0.0 0.9 0.00 0.00 0.00 31 1014.0
20260504223624 75 89 0.0 1.7 0.00 0.00 0.00 30 1014.1
20260504223120 75 68 0.0 1.7 0.00 0.00 0.00 29 1014.3
20260504222617 76 91 0.9 2.6 0.00 0.00 0.00 29 1014.3
20260504222114 76 148 0.9 1.7 0.00 0.00 0.00 29 1014.0
20260504221611 77 130 0.0 1.7 0.00 0.00 0.00 29 1014.0
20260504221108 77 252 0.9 1.7 0.00 0.00 0.00 28 1014.3
20260504220604 77 69 0.9 3.5 0.00 0.00 0.00 30 1014.3
20260504215558 78 235 1.7 2.6 0.00 0.00 0.00 29 1014.1
20260504215056 79 163 0.9 1.7 0.00 0.00 0.00 30 1014.1
20260504214551 79 76 0.0 2.6 0.00 0.00 0.00 28 1014.0
20260504214048 79 281 0.9 4.3 0.00 0.00 0.00 29 1014.1
20260504213544 79 26 0.9 4.3 0.00 0.00 0.00 28 1014.0
20260504213041 80 106 1.7 2.6 0.00 0.00 0.00 29 1014.1
20260504212537 80 230 1.7 2.6 0.00 0.00 0.00 29 1014.1
20260504212035 80 37 0.0 2.6 0.00 0.00 0.00 31 1014.1
20260504211532 80 61 0.9 4.3 0.00 0.00 0.00 31 1014.3
20260504211028 80 252 0.9 3.5 0.00 0.00 0.00 29 1014.1
20260504210525 80 250 0.0 2.6 0.00 0.00 0.00 28 1014.4
20260504210022 81 333 0.0 2.6 0.00 0.00 0.00 27 1014.1
20260504205520 80 282 0.0 1.7 0.00 0.00 0.00 30 1014.4
20260504205018 80 15 0.0 2.6 0.00 0.00 0.00 28 1014.4
20260504204515 81 143 1.7 2.6 0.00 0.00 0.00 29 1014.3
20260504204014 80 66 2.6 2.6 0.00 0.00 0.00 29 1014.6
20260504203512 80 180 0.0 3.5 0.00 0.00 0.00 28 1014.6
20260504203009 80 46 0.9 4.3 0.00 0.00 0.00 29 1014.6
20260504202505 80 26 2.6 3.5 0.00 0.00 0.00 27 1014.6
20260504202001 80 129 1.7 2.6 0.00 0.00 0.00 28 1014.7
20260504201459 82 13 0.9 2.6 0.00 0.00 0.00 27 1014.8
20260504200956 81 227 1.7 1.7 0.00 0.00 0.00 28 1014.7
20260504200453 80 118 0.0 3.5 0.00 0.00 0.00 29 1014.9
20260504195949 80 101 2.6 3.5 0.00 0.00 0.00 28 1014.8
20260504195445 81 276 1.7 6.1 0.00 0.00 0.00 28 1015.0
20260504194942 81 85 1.7 3.5 0.00 0.00 0.00 28 1015.2
20260504194438 82 14 0.9 1.7 0.00 0.00 0.00 28 1015.0
20260504193934 81 235 1.7 2.6 0.00 0.00 0.00 27 1015.0
20260504193432 81 96 2.6 3.5 0.00 0.00 0.00 28 1015.2
20260504192930 81 126 1.7 3.5 0.00 0.00 0.00 28 1015.2
20260504192427 80 312 0.0 1.7 0.00 0.00 0.00 28 1015.3
20260504191926 82 76 0.0 3.5 0.00 0.00 0.00 27 1015.5
20260504191424 81 196 0.9 3.5 0.00 0.00 0.00 29 1015.5
20260504190919 81 225 0.9 1.7 0.00 0.00 0.00 27 1015.5
20260504190415 81 168 1.7 1.7 0.00 0.00 0.00 28 1015.4
20260504185912 81 187 0.9 1.7 0.00 0.00 0.00 27 1015.6
20260504185409 81 213 0.9 2.6 0.00 0.00 0.00 27 1015.6
20260504184904 79 62 0.0 2.6 0.00 0.00 0.00 29 1015.7
20260504184401 80 73 0.0 4.3 0.00 0.00 0.00 29 1015.8
20260504183856 80 302 0.0 1.7 0.00 0.00 0.00 29 1015.9
20260504183354 79 73 0.0 1.7 0.00 0.00 0.00 31 1015.9
20260504182852 79 0 0.0 1.7 0.00 0.00 0.00 30 1015.9
20260504182349 77 329 0.0 1.7 0.00 0.00 0.00 32 1016.0
20260504181845 76 12 1.7 1.7 0.00 0.00 0.00 32 1015.9
20260504181343 76 61 1.7 3.5 0.00 0.00 0.00 32 1016.1
20260504180842 77 76 1.7 2.6 0.00 0.00 0.00 32 1016.1
20260504180340 76 259 0.9 1.7 0.00 0.00 0.00 36 1016.1
20260504175838 76 293 1.7 2.6 0.00 0.00 0.00 35 1016.1
20260504175334 75 27 0.9 1.7 0.00 0.00 0.00 35 1016.1
20260504174832 74 95 0.0 5.2 0.00 0.00 0.00 35 1016.1
20260504174330 73 26 1.7 1.7 0.00 0.00 0.00 36 1016.1
20260504173826 74 115 2.6 2.6 0.00 0.00 0.00 34 1016.2
20260504173323 73 200 0.9 1.7 0.00 0.00 0.00 39 1016.1
20260504172820 73 80 1.7 3.5 0.00 0.00 0.00 36 1016.1
20260504172317 72 93 0.0 2.6 0.00 0.00 0.00 36 1016.3
20260504171812 73 154 0.0 3.5 0.00 0.00 0.00 36 1016.5
20260504171310 72 66 0.9 1.7 0.00 0.00 0.00 36 1016.7
20260504170807 71 11 0.9 1.7 0.00 0.00 0.00 37 1016.8
20260504170304 71 22 0.9 1.7 0.00 0.00 0.00 37 1017.0
20260504160222 69 137 1.7 1.7 0.00 0.00 0.00 36 1018.0
20260504150653 66 63 0.9 2.6 0.00 0.00 0.00 41 1018.2
20260504150150 65 89 0.0 0.9 0.00 0.00 0.00 43 1018.3
20260504141119 62 114 1.7 2.6 0.00 0.00 0.00 52 1018.3
20260504140616 61 86 1.7 3.5 0.00 0.00 0.00 54 1018.0
20260504140111 61 76 1.7 1.7 0.00 0.00 0.00 54 1018.0
20260504130539 53 101 1.7 2.6 0.00 0.00 0.00 78 1018.0
20260504110427 43 72 0.9 1.7 0.00 0.00 0.00 88 1017.6
20260504100344 44 95 0.9 1.7 0.00 0.00 0.00 86 1017.1
20260504081737 46 69 1.7 1.7 0.00 0.00 0.00 85 1017.5
20260504081233 46 89 1.7 1.7 0.00 0.00 0.00 84 1017.3
20260504080730 46 94 1.7 1.7 0.00 0.00 0.00 85 1017.2
20260504080226 46 75 1.7 1.7 0.00 0.00 0.00 85 1017.1
20260504070154 46 92 1.7 1.7 0.00 0.00 0.00 83 1017.3
20260504060115 49 78 1.7 2.6 0.00 0.00 0.00 78 1017.5
20260504050543 49 101 1.7 2.6 0.00 0.00 0.00 77 1017.4
20260504045536 49 87 1.7 1.7 0.00 0.00 0.00 76 1017.4
20260504045032 49 95 1.7 1.7 0.00 0.00 0.00 75 1017.2
20260504044530 49 93 1.7 2.6 0.00 0.00 0.00 75 1017.4
20260504044026 50 92 1.7 1.7 0.00 0.00 0.00 74 1017.2
20260504043523 50 88 1.7 2.6 0.00 0.00 0.00 74 1017.2
20260504043021 50 78 1.7 2.6 0.00 0.00 0.00 74 1017.3
20260504042517 50 85 1.7 2.6 0.00 0.00 0.00 74 1017.4
20260504042015 50 85 1.7 1.7 0.00 0.00 0.00 73 1017.2
20260504041510 50 87 1.7 1.7 0.00 0.00 0.00 73 1017.3
20260504041006 50 86 1.7 1.7 0.00 0.00 0.00 72 1017.3
20260504040504 50 71 1.7 1.7 0.00 0.00 0.00 72 1017.4
20260504040000 50 76 1.7 2.6 0.00 0.00 0.00 72 1017.5
20260504035458 51 78 1.7 2.6 0.00 0.00 0.00 71 1017.5
20260504034954 51 87 1.7 1.7 0.00 0.00 0.00 71 1017.6
20260504034452 51 66 1.7 1.7 0.00 0.00 0.00 71 1017.5
20260504033948 51 76 1.7 1.7 0.00 0.00 0.00 71 1017.5
20260504033446 51 93 1.7 2.6 0.00 0.00 0.00 71 1017.4
20260504032943 51 66 1.7 1.7 0.00 0.00 0.00 70 1017.5
20260504032440 51 84 0.9 1.7 0.00 0.00 0.00 70 1017.5
20260504031937 52 86 1.7 1.7 0.00 0.00 0.00 69 1017.6
20260504031434 52 97 1.7 1.7 0.00 0.00 0.00 68 1017.5
20260504030930 52 88 1.7 2.6 0.00 0.00 0.00 68 1017.8
20260504030427 52 89 1.7 1.7 0.00 0.00 0.00 67 1017.8
20260504025923 52 78 1.7 1.7 0.00 0.00 0.00 67 1017.6
20260504025420 53 86 1.7 1.7 0.00 0.00 0.00 66 1017.5
20260504024918 53 87 2.6 2.6 0.00 0.00 0.00 65 1017.4
20260504024415 53 87 1.7 1.7 0.00 0.00 0.00 67 1017.6
20260504023912 53 84 1.7 1.7 0.00 0.00 0.00 65 1017.4
20260504023408 53 88 1.7 1.7 0.00 0.00 0.00 65 1017.4
20260504022903 53 82 1.7 1.7 0.00 0.00 0.00 64 1017.5
20260504022400 54 88 1.7 1.7 0.00 0.00 0.00 63 1017.3
20260504021856 54 85 1.7 1.7 0.00 0.00 0.00 63 1017.1
20260504021354 54 81 1.7 1.7 0.00 0.00 0.00 63 1017.1
20260504020851 54 84 1.7 1.7 0.00 0.00 0.00 62 1017.0
20260504020348 55 85 1.7 2.6 0.00 0.00 0.00 62 1017.2
20260504015844 55 83 1.7 1.7 0.00 0.00 0.00 63 1017.1
20260504015340 55 102 1.7 1.7 0.00 0.00 0.00 62 1016.8
20260504014836 55 89 1.7 1.7 0.00 0.00 0.00 62 1016.8
20260504014332 55 79 1.7 1.7 0.00 0.00 0.00 62 1016.9
20260504013830 56 88 1.7 1.7 0.00 0.00 0.00 61 1016.7
20260504013328 56 89 1.7 1.7 0.00 0.00 0.00 61 1016.9
20260504012824 56 81 1.7 1.7 0.00 0.00 0.00 63 1016.7
20260504012322 56 88 1.7 1.7 0.00 0.00 0.00 63 1016.6
20260504011819 56 95 1.7 1.7 0.00 0.00 0.00 59 1016.7
20260504011316 57 98 1.7 1.7 0.00 0.00 0.00 61 1016.4
20260504010811 57 89 0.9 1.7 0.00 0.00 0.00 58 1016.6
20260504010307 57 98 1.7 1.7 0.00 0.00 0.00 56 1016.5
20260504005804 57 80 0.9 1.7 0.00 0.00 0.00 56 1016.4
20260504005301 58 93 1.7 2.6 0.00 0.00 0.00 51 1016.4
20260504004759 58 84 1.7 1.7 0.00 0.00 0.00 55 1016.3
20260504004256 59 76 1.7 1.7 0.00 0.00 0.00 54 1016.3
20260504003752 59 85 0.9 1.7 0.00 0.00 0.00 57 1016.2
20260504003250 59 92 1.7 1.7 0.00 0.00 0.00 50 1016.2
20260504002746 60 81 1.7 1.7 0.00 0.00 0.00 50 1016.5
20260504002243 60 94 0.9 1.7 0.00 0.00 0.00 47 1016.3